Time,TemperatureF,DewpointF,PressureIn,WindDirection,WindDirectionDegrees,WindSpeedMPH,WindSpeedGustMPH,Humidity,HourlyPrecipIn,Conditions,Clouds,dailyrainin,SoftwareType,DateUTC
2013-05-14 00:01:00,40.6,18.2,29.12,NNW,338,0.0,0.0,40,0.00,CLR,SCT,0.00,WeatherDisplay:10.37,2013-05-14 08:01:00,
2013-05-14 00:06:00,40.5,18.0,29.12,NNW,338,0.0,0.0,40,0.00,CLR,SCT,0.00,WeatherDisplay:10.37,2013-05-14 08:06:00,
2013-05-14 00:11:00,40.3,17.8,29.12,NNW,338,0.0,0.0,40,0.00,CLR,SCT,0.00,WeatherDisplay:10.37,2013-05-14 08:11:00,
2013-05-14 00:16:00,40.3,17.8,29.12,NNW,338,0.0,0.0,40,0.00,CLR,SCT,0.00,WeatherDisplay:10.37,2013-05-14 08:16:00,
2013-05-14 00:21:00,40.3,17.8,29.12,NNW,338,0.0,0.0,40,0.00,CLR,SCT,0.00,WeatherDisplay:10.37,2013-05-14 08:21:00,
2013-05-14 00:26:00,40.3,17.8,29.12,NNW,338,0.0,0.0,40,0.00,CLR,SCT,0.00,WeatherDisplay:10.37,2013-05-14 08:26:00,
2013-05-14 00:31:00,39.9,17.5,29.12,NNW,338,0.0,0.0,40,0.00,CLR,SCT,0.00,WeatherDisplay:10.37,2013-05-14 08:31:00,
2013-05-14 00:37:00,39.7,17.9,29.12,NNW,338,0.0,0.0,41,0.00,CLR,SCT,0.00,WeatherDisplay:10.37,2013-05-14 08:37:00,
2013-05-14 00:42:00,39.4,17.6,29.12,NNW,338,0.0,0.0,41,0.00,CLR,SCT,0.00,WeatherDisplay:10.37,2013-05-14 08:42:00,
2013-05-14 00:47:00,39.4,17.6,29.12,NNW,338,0.0,0.0,41,0.00,CLR,SCT,0.00,WeatherDisplay:10.37,2013-05-14 08:47:00,
2013-05-14 00:52:00,39.0,17.3,29.12,NNW,338,0.0,0.0,41,0.00,CLR,SCT,0.00,WeatherDisplay:10.37,2013-05-14 08:52:00,
2013-05-14 00:57:00,38.8,17.7,29.12,NNW,338,0.0,0.0,42,0.00,CLR,SCT,0.00,WeatherDisplay:10.37,2013-05-14 08:57:00,
2013-05-14 01:02:00,38.5,17.3,29.12,NNW,338,0.0,0.0,42,0.00,CLR,SCT,0.00,WeatherDisplay:10.37,2013-05-14 09:02:00,
2013-05-14 01:07:00,38.3,17.2,29.12,NNW,338,0.0,0.0,42,0.00,CLR,SCT,0.00,WeatherDisplay:10.37,2013-05-14 09:07:00,
2013-05-14 01:12:00,38.1,17.0,29.12,NNW,338,0.0,0.0,42,0.00,CLR,SCT,0.00,WeatherDisplay:10.37,2013-05-14 09:12:00,
2013-05-14 01:17:00,37.9,16.9,29.12,NNW,338,0.0,0.0,42,0.00,CLR,SCT,0.00,WeatherDisplay:10.37,2013-05-14 09:17:00,
2013-05-14 01:22:00,37.8,16.7,29.12,NNW,338,0.0,0.0,42,0.00,CLR,SCT,0.00,WeatherDisplay:10.37,2013-05-14 09:22:00,
2013-05-14 01:27:00,37.6,17.1,29.12,NNW,338,0.0,0.0,43,0.00,CLR,SCT,0.00,WeatherDisplay:10.37,2013-05-14 09:27:00,
2013-05-14 01:32:00,37.4,16.9,29.12,NNW,338,0.0,0.0,43,0.00,CLR,SCT,0.00,WeatherDisplay:10.37,2013-05-14 09:32:00,
2013-05-14 01:37:00,37.4,16.9,29.12,NNW,338,0.0,0.0,43,0.00,CLR,SCT,0.00,WeatherDisplay:10.37,2013-05-14 09:37:00,
2013-05-14 01:42:00,37.4,16.9,29.12,NNW,338,0.0,0.0,43,0.00,CLR,SCT,0.00,WeatherDisplay:10.37,2013-05-14 09:42:00,
2013-05-14 01:47:00,37.4,16.9,29.12,NNW,338,0.0,0.0,43,0.00,CLR,SCT,0.00,WeatherDisplay:10.37,2013-05-14 09:47:00,
2013-05-14 01:52:00,37.2,16.7,29.12,NNW,338,0.0,0.0,43,0.00,CLR,SCT,0.00,WeatherDisplay:10.37,2013-05-14 09:52:00,
2013-05-14 01:57:00,37.2,16.7,29.12,NNW,338,0.0,0.0,43,0.00,CLR,SCT,0.00,WeatherDisplay:10.37,2013-05-14 09:57:00,
2013-05-14 02:02:00,37.0,16.6,29.12,NNW,338,0.0,0.0,43,0.00,CLR,SCT,0.00,WeatherDisplay:10.37,2013-05-14 10:02:00,
2013-05-14 02:07:00,37.0,16.6,29.12,NNW,338,0.0,0.0,43,0.00,CLR,SCT,0.00,WeatherDisplay:10.37,2013-05-14 10:07:00,
2013-05-14 02:12:00,37.0,16.6,29.12,NNW,338,0.0,0.0,43,0.00,CLR,SCT,0.00,WeatherDisplay:10.37,2013-05-14 10:12:00,
2013-05-14 02:17:00,37.0,16.6,29.12,NNW,338,0.0,0.0,43,0.00,CLR,SCT,0.00,WeatherDisplay:10.37,2013-05-14 10:17:00,
2013-05-14 02:22:00,37.0,16.6,29.12,NNW,338,0.0,0.0,43,0.00,CLR,SCT,0.00,WeatherDisplay:10.37,2013-05-14 10:22:00,
2013-05-14 02:27:00,37.0,16.6,29.12,NNW,338,0.0,0.0,43,0.00,CLR,SCT,0.00,WeatherDisplay:10.37,2013-05-14 10:27:00,
2013-05-14 02:32:00,37.0,16.6,29.12,NNW,338,0.0,0.0,43,0.00,CLR,SCT,0.00,WeatherDisplay:10.37,2013-05-14 10:32:00,
2013-05-14 02:37:00,37.0,17.1,29.15,NNW,338,0.0,0.0,44,0.00,CLR,SCT,0.00,WeatherDisplay:10.37,2013-05-14 10:37:00,
2013-05-14 02:42:00,36.9,17.0,29.15,NNW,338,0.0,0.0,44,0.00,CLR,SCT,0.00,WeatherDisplay:10.37,2013-05-14 10:42:00,
2013-05-14 02:47:00,36.9,17.0,29.15,NNW,338,0.0,0.0,44,0.00,CLR,SCT,0.00,WeatherDisplay:10.37,2013-05-14 10:47:00,
2013-05-14 02:52:00,36.7,16.8,29.15,NNW,338,0.0,0.0,44,0.00,CLR,SCT,0.00,WeatherDisplay:10.37,2013-05-14 10:52:00,
2013-05-14 02:57:00,36.7,16.8,29.15,NNW,338,0.0,0.0,44,0.00,CLR,SCT,0.00,WeatherDisplay:10.37,2013-05-14 10:57:00,
2013-05-14 03:02:00,36.7,16.8,29.15,NNW,338,0.0,0.0,44,0.00,CLR,SCT,0.00,WeatherDisplay:10.37,2013-05-14 11:02:00,
2013-05-14 03:07:00,36.7,16.8,29.15,NNW,338,0.0,0.0,44,0.00,CLR,SCT,0.00,WeatherDisplay:10.37,2013-05-14 11:07:00,
2013-05-14 03:12:00,36.5,16.6,29.15,NNW,338,0.0,0.0,44,0.00,CLR,SCT,0.00,WeatherDisplay:10.37,2013-05-14 11:12:00,
2013-05-14 03:17:00,36.3,16.5,29.15,NNW,338,0.0,0.0,44,0.00,CLR,SCT,0.00,WeatherDisplay:10.37,2013-05-14 11:17:00,
2013-05-14 03:22:00,36.3,16.5,29.15,NNW,338,0.0,0.0,44,0.00,CLR,SCT,0.00,WeatherDisplay:10.37,2013-05-14 11:22:00,
2013-05-14 03:27:00,36.1,16.3,29.15,NNW,338,0.0,0.0,44,0.00,CLR,SCT,0.00,WeatherDisplay:10.37,2013-05-14 11:27:00,
2013-05-14 03:32:00,36.1,16.3,29.15,NNW,338,0.0,0.0,44,0.00,CLR,SCT,0.00,WeatherDisplay:10.37,2013-05-14 11:32:00,
2013-05-14 03:38:00,36.3,16.5,29.15,NNW,338,0.0,0.0,44,0.00,CLR,SCT,0.00,WeatherDisplay:10.37,2013-05-14 11:38:00,
2013-05-14 03:43:00,36.1,16.3,29.15,NNW,338,0.0,0.0,44,0.00,CLR,SCT,0.00,WeatherDisplay:10.37,2013-05-14 11:43:00,
2013-05-14 03:48:00,36.1,16.3,29.15,NNW,338,0.0,0.0,44,0.00,CLR,SCT,0.00,WeatherDisplay:10.37,2013-05-14 11:48:00,
2013-05-14 03:53:00,36.1,16.3,29.15,NNW,338,0.0,0.0,44,0.00,CLR,SCT,0.00,WeatherDisplay:10.37,2013-05-14 11:53:00,
2013-05-14 03:58:00,36.0,16.7,29.15,NNW,338,0.0,0.0,45,0.00,CLR,SCT,0.00,WeatherDisplay:10.37,2013-05-14 11:58:00,
2013-05-14 04:03:00,36.1,16.3,29.15,NNW,338,0.0,0.0,44,0.00,CLR,SCT,0.00,WeatherDisplay:10.37,2013-05-14 12:03:00,
2013-05-14 04:08:00,36.1,16.3,29.15,NNW,338,0.0,0.0,44,0.00,CLR,SCT,0.00,WeatherDisplay:10.37,2013-05-14 12:08:00,
2013-05-14 04:13:00,36.1,16.3,29.15,NNW,338,0.0,0.0,44,0.00,CLR,SCT,0.00,WeatherDisplay:10.37,2013-05-14 12:13:00,
2013-05-14 04:18:00,36.0,16.1,29.15,NNW,338,0.0,0.0,44,0.00,CLR,SCT,0.00,WeatherDisplay:10.37,2013-05-14 12:18:00,
2013-05-14 04:23:00,35.8,16.0,29.15,NNW,338,0.0,0.0,44,0.00,CLR,SCT,0.00,WeatherDisplay:10.37,2013-05-14 12:23:00,
2013-05-14 04:28:00,35.8,16.5,29.15,NNW,338,0.0,0.0,45,0.00,CLR,SCT,0.00,WeatherDisplay:10.37,2013-05-14 12:28:00,
2013-05-14 04:33:00,35.8,16.5,29.15,NNW,338,0.0,0.0,45,0.00,CLR,SCT,0.00,WeatherDisplay:10.37,2013-05-14 12:33:00,
2013-05-14 04:38:00,35.8,16.5,29.15,NNW,338,0.0,0.0,45,0.00,CLR,SCT,0.00,WeatherDisplay:10.37,2013-05-14 12:38:00,
2013-05-14 04:43:00,35.8,16.5,29.15,NNW,338,0.0,0.0,45,0.00,CLR,SCT,0.00,WeatherDisplay:10.37,2013-05-14 12:43:00,
2013-05-14 04:48:00,35.8,16.0,29.15,NNW,338,0.0,0.0,44,0.00,CLR,SCT,0.00,WeatherDisplay:10.37,2013-05-14 12:48:00,
2013-05-14 04:53:00,35.8,16.0,29.15,NNW,338,0.0,0.0,44,0.00,CLR,SCT,0.00,WeatherDisplay:10.37,2013-05-14 12:53:00,
2013-05-14 04:58:00,35.8,16.0,29.15,NNW,338,0.0,0.0,44,0.00,CLR,SCT,0.00,WeatherDisplay:10.37,2013-05-14 12:58:00,
2013-05-14 05:03:00,36.0,16.1,29.15,NNW,338,0.0,0.0,44,0.00,CLR,SCT,0.00,WeatherDisplay:10.37,2013-05-14 13:03:00,
2013-05-14 05:08:00,35.8,16.0,29.12,NNW,338,0.0,0.0,44,0.00,CLR,SCT,0.00,WeatherDisplay:10.37,2013-05-14 13:08:00,
2013-05-14 05:13:00,35.4,16.2,29.12,NNW,338,0.0,0.0,45,0.00,CLR,SCT,0.00,WeatherDisplay:10.37,2013-05-14 13:13:00,
2013-05-14 05:18:00,35.4,16.2,29.12,NNW,338,0.0,0.0,45,0.00,CLR,SCT,0.00,WeatherDisplay:10.37,2013-05-14 13:18:00,
2013-05-14 05:23:00,35.6,16.3,29.15,NNW,338,0.0,0.0,45,0.00,CLR,SCT,0.00,WeatherDisplay:10.37,2013-05-14 13:23:00,
2013-05-14 05:28:00,35.6,16.3,29.15,NNW,338,0.0,0.0,45,0.00,CLR,SCT,0.00,WeatherDisplay:10.37,2013-05-14 13:28:00,
2013-05-14 05:33:00,35.2,17.0,29.15,NNW,338,0.0,0.0,47,0.00,CLR,SCT,0.00,WeatherDisplay:10.37,2013-05-14 13:33:00,
2013-05-14 05:38:00,34.9,17.2,29.15,NNW,338,0.0,0.0,48,0.00,CLR,SCT,0.00,WeatherDisplay:10.37,2013-05-14 13:38:00,
2013-05-14 05:43:00,34.5,17.3,29.15,NNW,338,0.0,0.0,49,0.00,CLR,SCT,0.00,WeatherDisplay:10.37,2013-05-14 13:43:00,
2013-05-14 05:48:00,34.5,17.3,29.15,NNW,338,0.0,0.0,49,0.00,CLR,SCT,0.00,WeatherDisplay:10.37,2013-05-14 13:48:00,
2013-05-14 05:53:00,34.3,17.1,29.15,NNW,338,0.0,0.0,49,0.00,CLR,SCT,0.00,WeatherDisplay:10.37,2013-05-14 13:53:00,
2013-05-14 05:58:00,34.5,17.3,29.15,NNW,338,0.0,0.0,49,0.00,CLR,SCT,0.00,WeatherDisplay:10.37,2013-05-14 13:58:00,
2013-05-14 06:03:00,34.5,17.3,29.12,NNW,338,0.0,0.0,49,0.00,CLR,SCT,0.00,WeatherDisplay:10.37,2013-05-14 14:03:00,
2013-05-14 06:08:00,34.3,16.7,29.12,NNW,338,0.0,0.0,48,0.00,CLR,SCT,0.00,WeatherDisplay:10.37,2013-05-14 14:08:00,
2013-05-14 06:13:00,34.5,16.3,29.12,NNW,338,0.0,0.0,47,0.00,CLR,SCT,0.00,WeatherDisplay:10.37,2013-05-14 14:13:00,
2013-05-14 06:18:00,34.9,16.2,29.15,NNW,338,2.3,0.0,46,0.00,CLR,SCT,0.00,WeatherDisplay:10.37,2013-05-14 14:18:00,
2013-05-14 06:23:00,34.9,15.7,29.15,NNW,338,3.5,3.5,45,0.00,CLR,SCT,0.00,WeatherDisplay:10.37,2013-05-14 14:23:00,
2013-05-14 06:28:00,35.2,15.5,29.15,NNW,338,3.5,3.5,44,0.00,CLR,SCT,0.00,WeatherDisplay:10.37,2013-05-14 14:28:00,
2013-05-14 06:33:00,35.2,15.5,29.12,NNW,338,0.0,0.0,44,0.00,CLR,SCT,0.00,WeatherDisplay:10.37,2013-05-14 14:33:00,
2013-05-14 06:38:00,35.2,15.5,29.12,NNW,338,3.5,3.5,44,0.00,CLR,SCT,0.00,WeatherDisplay:10.37,2013-05-14 14:38:00,
2013-05-14 06:43:00,35.2,15.5,29.12,NNW,338,3.5,0.0,44,0.00,CLR,SCT,0.00,WeatherDisplay:10.37,2013-05-14 14:43:00,
2013-05-14 06:48:00,35.2,15.5,29.12,NNW,338,2.3,0.0,44,0.00,CLR,SCT,0.00,WeatherDisplay:10.37,2013-05-14 14:48:00,
2013-05-14 06:53:00,35.2,15.5,29.12,NNW,338,0.0,0.0,44,0.00,CLR,SCT,0.00,WeatherDisplay:10.37,2013-05-14 14:53:00,
2013-05-14 06:58:00,35.1,15.8,29.12,ENE,68,3.5,3.6,45,0.00,CLR,SCT,0.00,WeatherDisplay:10.37,2013-05-14 14:58:00,
2013-05-14 07:03:00,35.4,15.1,29.15,ENE,68,5.8,0.0,43,0.00,CLR,SCT,0.00,WeatherDisplay:10.37,2013-05-14 15:03:00,
2013-05-14 07:08:00,35.4,15.1,29.15,ENE,68,3.5,3.5,43,0.00,CLR,SCT,0.00,WeatherDisplay:10.37,2013-05-14 15:08:00,
2013-05-14 07:13:00,35.4,15.1,29.15,ENE,68,0.0,0.0,43,0.00,CLR,SCT,0.00,WeatherDisplay:10.37,2013-05-14 15:13:00,
2013-05-14 07:18:00,35.4,15.6,29.15,ENE,68,0.0,0.0,44,0.00,CLR,SCT,0.00,WeatherDisplay:10.37,2013-05-14 15:18:00,
2013-05-14 07:23:00,35.4,15.6,29.15,ENE,68,0.0,0.0,44,0.00,CLR,SCT,0.00,WeatherDisplay:10.37,2013-05-14 15:23:00,
2013-05-14 07:28:00,35.4,15.1,29.15,ENE,68,4.6,4.6,43,0.00,CLR,SCT,0.00,WeatherDisplay:10.37,2013-05-14 15:28:00,
2013-05-14 07:33:00,35.6,14.7,29.15,ENE,68,5.8,5.8,42,0.00,CLR,SCT,0.00,WeatherDisplay:10.37,2013-05-14 15:33:00,
2013-05-14 07:38:00,35.6,15.3,29.15,ENE,68,2.6,2.6,43,0.00,CLR,SCT,0.00,WeatherDisplay:10.37,2013-05-14 15:38:00,
2013-05-14 07:43:00,35.6,15.3,29.15,ENE,68,5.8,0.0,43,0.00,CLR,SCT,0.00,WeatherDisplay:10.37,2013-05-14 15:43:00,
2013-05-14 07:48:00,35.6,15.3,29.15,ENE,68,3.1,0.0,43,0.00,CLR,SCT,0.00,WeatherDisplay:10.37,2013-05-14 15:48:00,
2013-05-14 07:53:00,35.8,15.4,29.15,ENE,68,3.5,0.0,43,0.00,CLR,SCT,0.00,WeatherDisplay:10.37,2013-05-14 15:53:00,
2013-05-14 07:58:00,35.8,15.4,29.15,ENE,68,4.9,0.0,43,0.00,CLR,SCT,0.00,WeatherDisplay:10.37,2013-05-14 15:58:00,
2013-05-14 08:03:00,36.0,15.6,29.15,ENE,68,0.0,0.0,43,0.00,CLR,SCT,0.00,WeatherDisplay:10.37,2013-05-14 16:03:00,
2013-05-14 08:08:00,36.0,15.6,29.15,ENE,68,4.6,0.0,43,0.00,CLR,SCT,0.00,WeatherDisplay:10.37,2013-05-14 16:08:00,
2013-05-14 08:13:00,36.1,15.8,29.15,ENE,68,0.0,0.0,43,0.00,CLR,SCT,0.00,WeatherDisplay:10.37,2013-05-14 16:13:00,
2013-05-14 08:18:00,36.1,15.2,29.15,ENE,68,5.8,5.8,42,0.00,CLR,SCT,0.00,WeatherDisplay:10.37,2013-05-14 16:18:00,
2013-05-14 08:23:00,36.3,15.4,29.15,ENE,68,5.8,5.8,42,0.00,CLR,SCT,0.00,WeatherDisplay:10.37,2013-05-14 16:23:00,
2013-05-14 08:28:00,36.7,15.7,29.15,ENE,68,4.6,4.6,42,0.00,CLR,SCT,0.00,WeatherDisplay:10.37,2013-05-14 16:28:00,
2013-05-14 08:33:00,37.0,16.0,29.15,ENE,68,2.6,2.6,42,0.00,CLR,SCT,0.00,WeatherDisplay:10.37,2013-05-14 16:33:00,
2013-05-14 08:38:00,37.6,16.5,29.15,ENE,68,4.6,4.6,42,0.00,CLR,SCT,0.00,WeatherDisplay:10.37,2013-05-14 16:38:00,
2013-05-14 08:43:00,37.8,16.1,29.15,ENE,68,3.6,3.6,41,0.00,CLR,SCT,0.00,WeatherDisplay:10.37,2013-05-14 16:43:00,
2013-05-14 08:48:00,37.8,16.1,29.15,ESE,112,5.8,5.8,41,0.00,CLR,SCT,0.00,WeatherDisplay:10.37,2013-05-14 16:48:00,
2013-05-14 08:53:00,38.1,16.5,29.15,ENE,68,3.6,0.0,41,0.00,CLR,SCT,0.00,WeatherDisplay:10.37,2013-05-14 16:53:00,
2013-05-14 08:58:00,38.5,16.2,29.15,ENE,68,4.9,4.9,40,0.00,CLR,SCT,0.00,WeatherDisplay:10.37,2013-05-14 16:58:00,
2013-05-14 09:03:00,38.5,16.2,29.15,ENE,68,2.6,2.6,40,0.00,CLR,SCT,0.00,WeatherDisplay:10.37,2013-05-14 17:03:00,
2013-05-14 09:08:00,38.5,16.2,29.15,ENE,68,3.5,3.5,40,0.00,CLR,SCT,0.00,WeatherDisplay:10.37,2013-05-14 17:08:00,
2013-05-14 09:13:00,38.8,16.5,29.15,ENE,68,5.8,5.8,40,0.00,CLR,SCT,0.00,WeatherDisplay:10.37,2013-05-14 17:13:00,
2013-05-14 09:18:00,39.6,16.6,29.15,ENE,68,4.0,4.0,39,0.00,CLR,SCT,0.00,WeatherDisplay:10.37,2013-05-14 17:18:00,
2013-05-14 09:23:00,39.6,16.6,29.15,ENE,68,8.1,8.1,39,0.00,CLR,SCT,0.00,WeatherDisplay:10.37,2013-05-14 17:23:00,
2013-05-14 09:28:00,40.3,16.7,29.15,SE,135,8.1,8.1,38,0.00,CLR,SCT,0.00,WeatherDisplay:10.37,2013-05-14 17:28:00,
2013-05-14 09:33:00,41.5,17.8,29.15,ESE,112,6.2,6.2,38,0.00,CLR,SCT,0.00,WeatherDisplay:10.37,2013-05-14 17:33:00,
2013-05-14 09:39:00,42.1,17.6,29.15,ENE,68,5.8,5.8,37,0.00,CLR,SCT,0.00,WeatherDisplay:10.37,2013-05-14 17:39:00,
2013-05-14 09:43:00,42.6,18.8,29.15,ENE,68,5.8,5.8,38,0.00,CLR,SCT,0.00,WeatherDisplay:10.37,2013-05-14 17:43:00,
2013-05-14 09:48:00,43.2,18.0,29.15,NE,45,8.3,8.3,36,0.00,CLR,SCT,0.00,WeatherDisplay:10.37,2013-05-14 17:48:00,
2013-05-14 09:53:00,43.7,18.5,29.15,NE,45,5.8,5.8,36,0.00,CLR,SCT,0.00,WeatherDisplay:10.37,2013-05-14 17:53:00,
2013-05-14 09:58:00,43.0,17.2,29.15,ENE,68,8.3,8.3,35,0.00,CLR,SCT,0.00,WeatherDisplay:10.37,2013-05-14 17:58:00,
2013-05-14 10:04:00,43.7,17.8,29.15,North,0,4.6,4.6,35,0.00,CLR,SCT,0.00,WeatherDisplay:10.37,2013-05-14 18:04:00,
2013-05-14 10:09:00,43.7,17.8,29.15,East,90,6.2,6.2,35,0.00,CLR,SCT,0.00,WeatherDisplay:10.37,2013-05-14 18:09:00,
2013-05-14 10:14:00,44.2,18.3,29.15,ENE,68,5.8,5.8,35,0.00,CLR,SCT,0.00,WeatherDisplay:10.37,2013-05-14 18:14:00,
2013-05-14 10:19:00,45.9,19.7,29.15,NE,45,3.5,4.0,35,0.00,CLR,SCT,0.00,WeatherDisplay:10.37,2013-05-14 18:19:00,
2013-05-14 10:24:00,46.2,20.0,29.15,East,90,4.0,4.0,35,0.00,CLR,SCT,0.00,WeatherDisplay:10.37,2013-05-14 18:24:00,
2013-05-14 10:29:00,45.7,18.9,29.15,ENE,68,3.6,3.6,34,0.00,CLR,SCT,0.00,WeatherDisplay:10.37,2013-05-14 18:29:00,
2013-05-14 10:34:00,45.0,18.9,29.15,ENE,68,3.5,3.5,35,0.00,CLR,SCT,0.00,WeatherDisplay:10.37,2013-05-14 18:34:00,
2013-05-14 10:39:00,43.5,17.6,29.15,ENE,68,5.8,5.8,35,0.00,CLR,SCT,0.00,WeatherDisplay:10.37,2013-05-14 18:39:00,
2013-05-14 10:44:00,43.0,17.2,29.15,SSE,158,6.2,6.2,35,0.00,CLR,SCT,0.00,WeatherDisplay:10.37,2013-05-14 18:44:00,
2013-05-14 10:49:00,44.1,18.1,29.18,SE,135,5.9,5.9,35,0.00,CLR,SCT,0.00,WeatherDisplay:10.37,2013-05-14 18:49:00,
2013-05-14 10:54:00,44.8,20.1,29.18,SE,135,4.6,0.0,37,0.00,CLR,SCT,0.00,WeatherDisplay:10.37,2013-05-14 18:54:00,
2013-05-14 10:59:00,44.6,18.6,29.18,NNE,22,3.5,3.5,35,0.00,CLR,SCT,0.00,WeatherDisplay:10.37,2013-05-14 18:59:00,
2013-05-14 11:04:00,43.3,17.5,29.18,SE,135,5.8,5.8,35,0.00,CLR,SCT,0.00,WeatherDisplay:10.37,2013-05-14 19:04:00,
2013-05-14 11:09:00,44.2,18.9,29.18,East,90,3.5,3.5,36,0.00,CLR,SCT,0.00,WeatherDisplay:10.37,2013-05-14 19:09:00,
2013-05-14 11:14:00,45.3,19.2,29.18,ENE,68,3.5,3.5,35,0.00,CLR,SCT,0.00,WeatherDisplay:10.37,2013-05-14 19:14:00,
2013-05-14 11:19:00,46.0,19.9,29.18,South,180,4.6,4.6,35,0.00,CLR,SCT,0.00,WeatherDisplay:10.37,2013-05-14 19:19:00,
2013-05-14 11:24:00,45.3,19.2,29.18,SE,135,4.6,4.6,35,0.00,CLR,SCT,0.00,WeatherDisplay:10.37,2013-05-14 19:24:00,
2013-05-14 11:29:00,45.3,19.2,29.18,ENE,68,3.5,3.5,35,0.00,CLR,SCT,0.00,WeatherDisplay:10.37,2013-05-14 19:29:00,
2013-05-14 11:34:00,46.8,20.5,29.18,NNE,22,2.3,0.0,35,0.00,CLR,SCT,0.00,WeatherDisplay:10.37,2013-05-14 19:34:00,
2013-05-14 11:39:00,46.9,20.7,29.18,NE,45,0.0,0.0,35,0.00,CLR,SCT,0.00,WeatherDisplay:10.37,2013-05-14 19:39:00,
2013-05-14 11:44:00,46.6,19.7,29.18,NE,45,3.5,3.5,34,0.00,CLR,SCT,0.00,WeatherDisplay:10.37,2013-05-14 19:44:00,
2013-05-14 11:49:00,46.9,20.0,29.18,NE,45,3.5,3.5,34,0.00,CLR,SCT,0.00,WeatherDisplay:10.37,2013-05-14 19:49:00,
2013-05-14 11:54:00,47.1,20.2,29.18,ENE,68,3.6,0.0,34,0.00,CLR,SCT,0.00,WeatherDisplay:10.37,2013-05-14 19:54:00,
2013-05-14 11:59:00,48.0,20.9,29.18,NNE,22,3.5,3.5,34,0.00,CLR,SCT,0.00,WeatherDisplay:10.37,2013-05-14 19:59:00,
2013-05-14 12:04:00,47.8,20.8,29.18,NE,45,3.5,0.0,34,0.00,CLR,SCT,0.00,WeatherDisplay:10.37,2013-05-14 20:04:00,
2013-05-14 12:09:00,48.4,21.3,29.18,NW,315,0.0,2.2,34,0.00,CLR,SCT,0.00,WeatherDisplay:10.37,2013-05-14 20:09:00,
2013-05-14 12:14:00,47.7,20.6,29.18,South,180,5.8,5.8,34,0.00,CLR,SCT,0.00,WeatherDisplay:10.37,2013-05-14 20:14:00,
2013-05-14 12:19:00,45.9,19.7,29.18,ESE,112,6.9,6.9,35,0.00,CLR,SCT,0.00,WeatherDisplay:10.37,2013-05-14 20:19:00,
2013-05-14 12:24:00,46.2,20.0,29.18,SE,135,4.6,0.0,35,0.00,CLR,SCT,0.00,WeatherDisplay:10.37,2013-05-14 20:24:00,
2013-05-14 12:29:00,47.8,20.8,29.18,NNW,338,3.1,0.0,34,0.00,CLR,SCT,0.00,WeatherDisplay:10.37,2013-05-14 20:29:00,
2013-05-14 12:34:00,47.8,20.8,29.18,NW,315,3.5,3.5,34,0.00,CLR,SCT,0.00,WeatherDisplay:10.37,2013-05-14 20:34:00,
2013-05-14 12:39:00,48.6,20.7,29.18,NW,315,5.8,5.8,33,0.00,CLR,SCT,0.00,WeatherDisplay:10.37,2013-05-14 20:39:00,
2013-05-14 12:44:00,49.5,21.5,29.18,North,0,5.8,5.8,33,0.00,CLR,SCT,0.00,WeatherDisplay:10.37,2013-05-14 20:44:00,
2013-05-14 12:49:00,48.9,21.0,29.18,NW,315,5.8,5.8,33,0.00,CLR,SCT,0.00,WeatherDisplay:10.37,2013-05-14 20:49:00,
2013-05-14 12:54:00,48.9,22.4,29.18,North,0,5.8,5.8,35,0.00,CLR,SCT,0.00,WeatherDisplay:10.37,2013-05-14 20:54:00,
2013-05-14 12:59:00,47.5,22.5,29.18,NNW,338,5.8,5.8,37,0.00,CLR,SCT,0.00,WeatherDisplay:10.37,2013-05-14 20:59:00,
2013-05-14 13:04:00,48.4,22.6,29.18,NNW,338,5.8,5.8,36,0.00,CLR,SCT,0.00,WeatherDisplay:10.37,2013-05-14 21:04:00,
2013-05-14 13:09:00,48.7,23.6,29.18,NNW,338,8.1,8.1,37,0.00,CLR,SCT,0.00,WeatherDisplay:10.37,2013-05-14 21:09:00,
2013-05-14 13:14:00,47.7,22.6,29.18,NW,315,8.1,8.1,37,0.00,CLR,SCT,0.00,WeatherDisplay:10.37,2013-05-14 21:14:00,
2013-05-14 13:19:00,47.5,22.5,29.18,NNW,338,8.1,8.1,37,0.00,CLR,SCT,0.00,WeatherDisplay:10.37,2013-05-14 21:19:00,
2013-05-14 13:24:00,48.7,23.6,29.18,NW,315,7.6,7.6,37,0.00,CLR,SCT,0.00,WeatherDisplay:10.37,2013-05-14 21:24:00,
2013-05-14 13:29:00,48.2,23.1,29.18,NNW,338,5.8,5.8,37,0.00,CLR,SCT,0.00,WeatherDisplay:10.37,2013-05-14 21:29:00,
2013-05-14 13:34:00,47.7,22.6,29.18,North,0,8.1,8.1,37,0.00,CLR,SCT,0.00,WeatherDisplay:10.37,2013-05-14 21:34:00,
2013-05-14 13:39:00,47.1,22.1,29.18,WNW,292,10.4,10.4,37,0.00,CLR,SCT,0.00,WeatherDisplay:10.37,2013-05-14 21:39:00,
2013-05-14 13:44:00,47.1,22.1,29.18,NNW,338,9.2,9.2,37,0.00,CLR,SCT,0.00,WeatherDisplay:10.37,2013-05-14 21:44:00,
2013-05-14 13:49:00,48.4,23.3,29.18,NW,315,5.9,5.9,37,0.00,CLR,SCT,0.00,WeatherDisplay:10.37,2013-05-14 21:49:00,
2013-05-14 13:54:00,48.0,23.0,29.18,North,0,6.9,6.9,37,0.00,CLR,SCT,0.00,WeatherDisplay:10.37,2013-05-14 21:54:00,
2013-05-14 13:59:00,47.7,22.6,29.18,NNW,338,8.1,8.1,37,0.00,CLR,SCT,0.00,WeatherDisplay:10.37,2013-05-14 21:59:00,
2013-05-14 14:04:00,46.6,21.7,29.18,NW,315,9.2,9.2,37,0.00,CLR,SCT,0.00,WeatherDisplay:10.37,2013-05-14 22:04:00,
2013-05-14 14:09:00,46.8,21.8,29.18,NNW,338,5.8,5.9,37,0.00,CLR,SCT,0.00,WeatherDisplay:10.37,2013-05-14 22:09:00,
2013-05-14 14:14:00,46.9,22.0,29.18,NNW,338,8.7,8.7,37,0.00,CLR,SCT,0.00,WeatherDisplay:10.37,2013-05-14 22:14:00,
2013-05-14 14:19:00,46.6,21.7,29.18,NNW,338,9.2,9.2,37,0.00,CLR,SCT,0.00,WeatherDisplay:10.37,2013-05-14 22:19:00,
2013-05-14 14:24:00,46.8,21.8,29.18,NW,315,9.2,9.2,37,0.00,CLR,SCT,0.00,WeatherDisplay:10.37,2013-05-14 22:24:00,
2013-05-14 14:29:00,46.9,21.3,29.18,NNW,338,8.1,8.1,36,0.00,CLR,SCT,0.00,WeatherDisplay:10.37,2013-05-14 22:29:00,
2013-05-14 14:34:00,47.3,22.3,29.20,NW,315,8.7,8.7,37,0.00,CLR,SCT,0.00,WeatherDisplay:10.37,2013-05-14 22:34:00,
2013-05-14 14:39:00,47.1,21.5,29.20,WNW,292,9.7,9.7,36,0.00,CLR,SCT,0.00,WeatherDisplay:10.37,2013-05-14 22:39:00,
2013-05-14 14:44:00,46.8,21.8,29.20,North,0,8.1,8.1,37,0.00,CLR,SCT,0.00,WeatherDisplay:10.37,2013-05-14 22:44:00,
2013-05-14 14:49:00,46.6,21.0,29.20,NNW,338,5.8,5.8,36,0.00,CLR,SCT,0.00,WeatherDisplay:10.37,2013-05-14 22:49:00,
2013-05-14 14:54:00,46.6,21.0,29.20,NW,315,6.9,6.9,36,0.00,CLR,SCT,0.00,WeatherDisplay:10.37,2013-05-14 22:54:00,
2013-05-14 14:59:00,48.0,22.3,29.20,NE,45,5.8,5.8,36,0.00,CLR,SCT,0.00,WeatherDisplay:10.37,2013-05-14 22:59:00,
2013-05-14 15:04:00,48.0,21.6,29.20,NW,315,8.7,8.7,35,0.00,CLR,SCT,0.00,WeatherDisplay:10.37,2013-05-14 23:04:00,
2013-05-14 15:09:00,48.4,20.6,29.20,North,0,6.2,6.2,33,0.00,CLR,SCT,0.00,WeatherDisplay:10.37,2013-05-14 23:09:00,
2013-05-14 15:14:00,48.6,20.7,29.20,NW,315,8.1,8.1,33,0.00,CLR,SCT,0.00,WeatherDisplay:10.37,2013-05-14 23:14:00,
2013-05-14 15:19:00,48.4,20.6,29.20,NNW,338,8.1,8.1,33,0.00,CLR,SCT,0.00,WeatherDisplay:10.37,2013-05-14 23:19:00,
2013-05-14 15:24:00,48.0,20.2,29.20,WNW,292,10.4,10.4,33,0.00,CLR,SCT,0.00,WeatherDisplay:10.37,2013-05-14 23:24:00,
2013-05-14 15:29:00,48.0,20.9,29.20,NW,315,10.4,10.4,34,0.00,CLR,SCT,0.00,WeatherDisplay:10.37,2013-05-14 23:29:00,
2013-05-14 15:34:00,48.7,21.6,29.20,NNW,338,8.1,8.1,34,0.00,CLR,SCT,0.00,WeatherDisplay:10.37,2013-05-14 23:34:00,
2013-05-14 15:40:00,48.7,21.6,29.20,NW,315,8.1,8.1,34,0.00,CLR,SCT,0.00,WeatherDisplay:10.37,2013-05-14 23:40:00,
2013-05-14 15:44:00,48.2,20.4,29.20,NW,315,10.4,10.4,33,0.00,CLR,SCT,0.00,WeatherDisplay:10.37,2013-05-14 23:44:00,
2013-05-14 15:50:00,48.7,20.9,29.20,NW,315,9.2,9.2,33,0.00,CLR,SCT,0.00,WeatherDisplay:10.37,2013-05-14 23:50:00,
2013-05-14 15:55:00,48.0,20.2,29.20,NW,315,8.3,8.3,33,0.00,CLR,SCT,0.00,WeatherDisplay:10.37,2013-05-14 23:55:00,
2013-05-14 16:00:00,47.8,20.1,29.20,NNW,338,8.1,8.1,33,0.00,CLR,SCT,0.00,WeatherDisplay:10.37,2013-05-15 00:00:00,
2013-05-14 16:05:00,47.8,20.1,29.24,WNW,292,8.1,8.1,33,0.00,CLR,SCT,0.00,WeatherDisplay:10.37,2013-05-15 00:05:00,
2013-05-14 16:10:00,47.7,19.9,29.24,WNW,292,11.5,11.5,33,0.00,CLR,SCT,0.00,WeatherDisplay:10.37,2013-05-15 00:10:00,
2013-05-14 16:15:00,47.3,18.9,29.24,NW,315,9.2,9.2,32,0.00,CLR,SCT,0.00,WeatherDisplay:10.37,2013-05-15 00:15:00,
2013-05-14 16:20:00,47.1,18.7,29.24,NNW,338,8.1,8.1,32,0.00,CLR,SCT,0.00,WeatherDisplay:10.37,2013-05-15 00:20:00,
2013-05-14 16:25:00,47.3,19.6,29.24,West,270,8.1,8.1,33,0.00,CLR,SCT,0.00,WeatherDisplay:10.37,2013-05-15 00:25:00,
2013-05-14 16:30:00,47.8,20.1,29.24,North,0,9.2,9.2,33,0.00,CLR,SCT,0.00,WeatherDisplay:10.37,2013-05-15 00:30:00,
2013-05-14 16:35:00,48.2,20.4,29.24,NNW,338,9.2,9.2,33,0.00,CLR,SCT,0.00,WeatherDisplay:10.37,2013-05-15 00:35:00,
2013-05-14 16:40:00,47.7,19.9,29.24,NNW,338,8.1,8.1,33,0.00,CLR,SCT,0.00,WeatherDisplay:10.37,2013-05-15 00:40:00,
2013-05-14 16:45:00,47.5,19.0,29.24,NNW,338,8.1,8.1,32,0.00,CLR,SCT,0.00,WeatherDisplay:10.37,2013-05-15 00:45:00,
2013-05-14 16:50:00,47.5,19.0,29.24,NNW,338,8.1,8.1,32,0.00,CLR,SCT,0.00,WeatherDisplay:10.37,2013-05-15 00:50:00,
2013-05-14 16:55:00,46.9,18.6,29.24,NNW,338,6.9,6.9,32,0.00,CLR,SCT,0.00,WeatherDisplay:10.37,2013-05-15 00:55:00,
2013-05-14 17:00:00,47.5,19.0,29.24,North,0,5.8,5.9,32,0.00,CLR,SCT,0.00,WeatherDisplay:10.37,2013-05-15 01:00:00,
2013-05-14 17:05:00,46.9,17.8,29.20,NW,315,8.1,8.1,31,0.00,CLR,SCT,0.00,WeatherDisplay:10.37,2013-05-15 01:05:00,
2013-05-14 17:10:00,47.1,18.0,29.20,NNW,338,8.3,8.3,31,0.00,CLR,SCT,0.00,WeatherDisplay:10.37,2013-05-15 01:10:00,
2013-05-14 17:15:00,46.4,17.4,29.20,NNW,338,6.9,6.9,31,0.00,CLR,SCT,0.00,WeatherDisplay:10.37,2013-05-15 01:15:00,
2013-05-14 17:20:00,46.4,17.4,29.24,NW,315,8.1,8.1,31,0.00,CLR,SCT,0.00,WeatherDisplay:10.37,2013-05-15 01:20:00,
2013-05-14 17:25:00,46.2,17.9,29.24,NW,315,8.3,8.3,32,0.00,CLR,SCT,0.00,WeatherDisplay:10.37,2013-05-15 01:25:00,
2013-05-14 17:30:00,46.4,17.4,29.24,WNW,292,5.8,5.8,31,0.00,CLR,SCT,0.00,WeatherDisplay:10.37,2013-05-15 01:30:00,
2013-05-14 17:35:00,46.8,17.7,29.24,NNW,338,8.3,8.3,31,0.00,CLR,SCT,0.00,WeatherDisplay:10.37,2013-05-15 01:35:00,
2013-05-14 17:40:00,46.2,17.2,29.24,NW,315,8.1,8.1,31,0.00,CLR,SCT,0.00,WeatherDisplay:10.37,2013-05-15 01:40:00,
2013-05-14 17:45:00,45.9,16.9,29.24,North,0,9.2,9.2,31,0.00,CLR,SCT,0.00,WeatherDisplay:10.37,2013-05-15 01:45:00,
2013-05-14 17:50:00,46.0,17.0,29.24,WNW,292,9.2,9.2,31,0.00,CLR,SCT,0.00,WeatherDisplay:10.37,2013-05-15 01:50:00,
2013-05-14 17:56:00,45.9,16.9,29.24,NNW,338,11.5,11.5,31,0.00,CLR,SCT,0.00,WeatherDisplay:10.37,2013-05-15 01:56:00,
2013-05-14 18:01:00,46.0,17.8,29.24,WNW,292,6.9,6.9,32,0.00,CLR,SCT,0.00,WeatherDisplay:10.37,2013-05-15 02:01:00,
2013-05-14 18:06:00,46.6,17.5,29.24,NNW,338,8.1,8.1,31,0.00,CLR,SCT,0.00,WeatherDisplay:10.37,2013-05-15 02:06:00,
2013-05-14 18:11:00,46.4,17.4,29.24,WNW,292,8.3,8.3,31,0.00,CLR,SCT,0.00,WeatherDisplay:10.37,2013-05-15 02:11:00,
2013-05-14 18:16:00,46.8,18.4,29.24,NNW,338,8.1,8.1,32,0.00,CLR,SCT,0.00,WeatherDisplay:10.37,2013-05-15 02:16:00,
2013-05-14 18:21:00,46.6,19.0,29.24,NNE,22,9.2,9.2,33,0.00,CLR,SCT,0.00,WeatherDisplay:10.37,2013-05-15 02:21:00,
2013-05-14 18:26:00,46.6,19.0,29.24,NNW,338,10.4,10.4,33,0.00,CLR,SCT,0.00,WeatherDisplay:10.37,2013-05-15 02:26:00,
2013-05-14 18:31:00,46.0,18.5,29.24,North,0,9.2,9.2,33,0.00,CLR,SCT,0.00,WeatherDisplay:10.37,2013-05-15 02:31:00,
2013-05-14 18:36:00,45.9,18.3,29.24,NW,315,9.2,9.2,33,0.00,CLR,SCT,0.00,WeatherDisplay:10.37,2013-05-15 02:36:00,
2013-05-14 18:41:00,45.5,18.0,29.24,WNW,292,8.1,8.1,33,0.00,CLR,SCT,0.00,WeatherDisplay:10.37,2013-05-15 02:41:00,
2013-05-14 18:46:00,46.0,19.2,29.24,North,0,8.3,8.3,34,0.00,CLR,SCT,0.00,WeatherDisplay:10.37,2013-05-15 02:46:00,
2013-05-14 18:51:00,45.5,18.7,29.24,NW,315,8.1,8.1,34,0.00,CLR,SCT,0.00,WeatherDisplay:10.37,2013-05-15 02:51:00,
2013-05-14 18:56:00,45.1,18.4,29.24,NNW,338,8.1,8.1,34,0.00,CLR,SCT,0.00,WeatherDisplay:10.37,2013-05-15 02:56:00,
2013-05-14 19:01:00,45.3,19.2,29.24,WNW,292,5.8,5.8,35,0.00,CLR,SCT,0.00,WeatherDisplay:10.37,2013-05-15 03:01:00,
2013-05-14 19:06:00,45.3,19.2,29.26,NNW,338,8.1,8.1,35,0.00,CLR,SCT,0.00,WeatherDisplay:10.37,2013-05-15 03:06:00,
2013-05-14 19:11:00,46.4,20.9,29.26,NW,315,4.6,4.6,36,0.00,CLR,SCT,0.00,WeatherDisplay:10.37,2013-05-15 03:11:00,
2013-05-14 19:16:00,45.9,20.4,29.26,NW,315,4.6,5.4,36,0.00,CLR,SCT,0.00,WeatherDisplay:10.37,2013-05-15 03:16:00,
2013-05-14 19:21:00,46.0,20.5,29.24,NW,315,5.8,5.8,36,0.00,CLR,SCT,0.00,WeatherDisplay:10.37,2013-05-15 03:21:00,
2013-05-14 19:26:00,46.0,20.5,29.24,WNW,292,3.5,3.5,36,0.00,CLR,SCT,0.00,WeatherDisplay:10.37,2013-05-15 03:26:00,
2013-05-14 19:31:00,45.5,20.7,29.24,WNW,292,8.1,8.1,37,0.00,CLR,SCT,0.00,WeatherDisplay:10.37,2013-05-15 03:31:00,
2013-05-14 19:36:00,45.5,20.7,29.26,NNW,338,5.8,5.8,37,0.00,CLR,SCT,0.00,WeatherDisplay:10.37,2013-05-15 03:36:00,
2013-05-14 19:41:00,45.5,20.7,29.26,North,0,3.5,0.0,37,0.00,CLR,SCT,0.00,WeatherDisplay:10.37,2013-05-15 03:41:00,
2013-05-14 19:46:00,45.3,19.9,29.26,NNW,338,4.6,4.6,36,0.00,CLR,SCT,0.00,WeatherDisplay:10.37,2013-05-15 03:46:00,
2013-05-14 19:51:00,45.3,19.9,29.26,NNW,338,4.6,4.6,36,0.00,CLR,SCT,0.00,WeatherDisplay:10.37,2013-05-15 03:51:00,
2013-05-14 19:56:00,45.1,19.1,29.26,NW,315,3.5,3.5,35,0.00,CLR,SCT,0.00,WeatherDisplay:10.37,2013-05-15 03:56:00,
2013-05-14 20:01:00,45.0,18.9,29.26,NW,315,8.1,8.1,35,0.00,CLR,SCT,0.00,WeatherDisplay:10.37,2013-05-15 04:01:00,
2013-05-14 20:06:00,45.0,19.6,29.26,NW,315,3.6,3.6,36,0.00,CLR,SCT,0.00,WeatherDisplay:10.37,2013-05-15 04:06:00,
2013-05-14 20:11:00,45.0,18.9,29.26,West,270,3.5,3.5,35,0.00,CLR,SCT,0.00,WeatherDisplay:10.37,2013-05-15 04:11:00,
2013-05-14 20:16:00,45.5,19.4,29.26,NNW,338,2.3,0.0,35,0.00,CLR,SCT,0.00,WeatherDisplay:10.37,2013-05-15 04:16:00,
2013-05-14 20:21:00,45.3,19.2,29.26,NW,315,3.6,3.6,35,0.00,CLR,SCT,0.00,WeatherDisplay:10.37,2013-05-15 04:21:00,
2013-05-14 20:26:00,45.5,20.1,29.26,NW,315,2.6,0.0,36,0.00,CLR,SCT,0.00,WeatherDisplay:10.37,2013-05-15 04:26:00,
2013-05-14 20:31:00,45.3,19.9,29.26,NNW,338,5.8,0.0,36,0.00,CLR,SCT,0.00,WeatherDisplay:10.37,2013-05-15 04:31:00,
2013-05-14 20:36:00,44.8,18.8,29.26,NNW,338,4.6,4.6,35,0.00,CLR,SCT,0.00,WeatherDisplay:10.37,2013-05-15 04:36:00,
2013-05-14 20:41:00,44.8,19.4,29.26,NNW,338,4.6,4.6,36,0.00,CLR,SCT,0.00,WeatherDisplay:10.37,2013-05-15 04:41:00,
2013-05-14 20:46:00,44.8,19.4,29.26,NW,315,3.5,3.5,36,0.00,CLR,SCT,0.00,WeatherDisplay:10.37,2013-05-15 04:46:00,
2013-05-14 20:51:00,45.3,19.9,29.26,NW,315,4.0,0.0,36,0.00,CLR,SCT,0.00,WeatherDisplay:10.37,2013-05-15 04:51:00,
2013-05-14 20:56:00,45.3,20.5,29.26,NW,315,3.5,0.0,37,0.00,CLR,SCT,0.00,WeatherDisplay:10.37,2013-05-15 04:56:00,
2013-05-14 21:01:00,45.3,20.5,29.26,NW,315,0.0,0.0,37,0.00,CLR,SCT,0.00,WeatherDisplay:10.37,2013-05-15 05:01:00,
2013-05-14 21:06:00,45.0,19.6,29.26,NW,315,2.3,0.0,36,0.00,CLR,SCT,0.00,WeatherDisplay:10.37,2013-05-15 05:06:00,
2013-05-14 21:11:00,44.4,19.7,29.26,NNW,338,2.3,2.6,37,0.00,CLR,SCT,0.00,WeatherDisplay:10.37,2013-05-15 05:11:00,
2013-05-14 21:16:00,43.7,18.5,29.26,NNW,338,3.5,0.0,36,0.00,CLR,SCT,0.00,WeatherDisplay:10.37,2013-05-15 05:16:00,
2013-05-14 21:21:00,43.2,18.6,29.26,NW,315,3.5,3.5,37,0.00,CLR,SCT,0.00,WeatherDisplay:10.37,2013-05-15 05:21:00,
2013-05-14 21:26:00,42.6,18.8,29.26,NNW,338,0.0,0.0,38,0.00,CLR,SCT,0.00,WeatherDisplay:10.37,2013-05-15 05:26:00,
2013-05-14 21:31:00,42.1,18.3,29.26,NNW,338,3.5,3.5,38,0.00,CLR,SCT,0.00,WeatherDisplay:10.37,2013-05-15 05:31:00,
2013-05-14 21:36:00,41.7,17.9,29.26,NNW,338,0.0,0.0,38,0.00,CLR,SCT,0.00,WeatherDisplay:10.37,2013-05-15 05:36:00,
2013-05-14 21:41:00,41.5,18.4,29.26,NNW,338,3.5,3.5,39,0.00,CLR,SCT,0.00,WeatherDisplay:10.37,2013-05-15 05:41:00,
2013-05-14 21:46:00,41.2,18.1,29.26,NNW,338,2.3,2.3,39,0.00,CLR,SCT,0.00,WeatherDisplay:10.37,2013-05-15 05:46:00,
2013-05-14 21:51:00,41.2,18.1,29.26,NNW,338,3.1,0.0,39,0.00,CLR,SCT,0.00,WeatherDisplay:10.37,2013-05-15 05:51:00,
2013-05-14 21:56:00,41.0,17.9,29.26,NNW,338,3.5,3.5,39,0.00,CLR,SCT,0.00,WeatherDisplay:10.37,2013-05-15 05:56:00,
2013-05-14 22:01:00,40.8,18.3,29.26,NNW,338,0.0,0.0,40,0.00,CLR,SCT,0.00,WeatherDisplay:10.37,2013-05-15 06:01:00,
2013-05-14 22:06:00,40.6,18.7,29.26,NNW,338,0.0,0.0,41,0.00,CLR,SCT,0.00,WeatherDisplay:10.37,2013-05-15 06:06:00,
2013-05-14 22:11:00,40.3,19.5,29.26,NNW,338,0.0,0.0,43,0.00,CLR,SCT,0.00,WeatherDisplay:10.37,2013-05-15 06:11:00,
2013-05-14 22:17:00,39.7,19.6,29.26,NNW,338,0.0,0.0,44,0.00,CLR,SCT,0.00,WeatherDisplay:10.37,2013-05-15 06:17:00,
2013-05-14 22:22:00,39.4,19.8,29.29,NNW,338,2.3,0.0,45,0.00,CLR,SCT,0.00,WeatherDisplay:10.37,2013-05-15 06:22:00,
2013-05-14 22:27:00,39.0,20.0,29.29,NNW,338,2.3,0.0,46,0.00,CLR,SCT,0.00,WeatherDisplay:10.37,2013-05-15 06:27:00,
2013-05-14 22:32:00,38.8,20.3,29.29,NNW,338,0.0,0.0,47,0.00,CLR,SCT,0.00,WeatherDisplay:10.37,2013-05-15 06:32:00,
2013-05-14 22:37:00,38.3,19.8,29.26,NNW,338,0.0,0.0,47,0.00,CLR,SCT,0.00,WeatherDisplay:10.37,2013-05-15 06:37:00,
2013-05-14 22:42:00,38.1,19.6,29.26,NNW,338,0.0,0.0,47,0.00,CLR,SCT,0.00,WeatherDisplay:10.37,2013-05-15 06:42:00,
2013-05-14 22:47:00,38.1,19.6,29.26,NNW,338,0.0,0.0,47,0.00,CLR,SCT,0.00,WeatherDisplay:10.37,2013-05-15 06:47:00,
2013-05-14 22:52:00,38.1,19.6,29.26,NNW,338,0.0,0.0,47,0.00,CLR,SCT,0.00,WeatherDisplay:10.37,2013-05-15 06:52:00,
2013-05-14 22:57:00,37.9,19.5,29.26,NNW,338,0.0,0.0,47,0.00,CLR,SCT,0.00,WeatherDisplay:10.37,2013-05-15 06:57:00,
2013-05-14 23:02:00,37.6,19.1,29.26,NNW,338,0.0,0.0,47,0.00,CLR,SCT,0.00,WeatherDisplay:10.37,2013-05-15 07:02:00,
2013-05-14 23:07:00,37.4,19.5,29.29,NNW,338,0.0,0.0,48,0.00,CLR,SCT,0.00,WeatherDisplay:10.37,2013-05-15 07:07:00,
2013-05-14 23:12:00,37.2,19.8,29.29,NNW,338,0.0,0.0,49,0.00,CLR,SCT,0.00,WeatherDisplay:10.37,2013-05-15 07:12:00,
2013-05-14 23:17:00,37.0,19.6,29.29,NNW,338,3.5,3.5,49,0.00,CLR,SCT,0.00,WeatherDisplay:10.37,2013-05-15 07:17:00,
2013-05-14 23:22:00,37.0,20.1,29.29,NNW,338,2.6,2.6,50,0.00,CLR,SCT,0.00,WeatherDisplay:10.37,2013-05-15 07:22:00,
2013-05-14 23:27:00,36.7,19.8,29.29,NNW,338,2.3,2.6,50,0.00,CLR,SCT,0.00,WeatherDisplay:10.37,2013-05-15 07:27:00,
2013-05-14 23:32:00,36.3,19.4,29.29,NNW,338,3.5,3.5,50,0.00,CLR,SCT,0.00,WeatherDisplay:10.37,2013-05-15 07:32:00,
2013-05-14 23:37:00,36.1,19.7,29.29,NNW,338,2.6,0.0,51,0.00,CLR,SCT,0.00,WeatherDisplay:10.37,2013-05-15 07:37:00,
2013-05-14 23:42:00,36.0,20.0,29.29,NNW,338,2.3,2.3,52,0.00,CLR,SCT,0.00,WeatherDisplay:10.37,2013-05-15 07:42:00,
2013-05-14 23:47:00,36.1,20.2,29.29,NNW,338,3.5,3.5,52,0.00,CLR,SCT,0.00,WeatherDisplay:10.37,2013-05-15 07:47:00,
2013-05-14 23:52:00,36.1,20.2,29.29,NNW,338,3.1,0.0,52,0.00,CLR,SCT,0.00,WeatherDisplay:10.37,2013-05-15 07:52:00,
2013-05-14 23:57:00,36.1,20.2,29.29,NNW,338,3.5,3.5,52,0.00,CLR,SCT,0.00,WeatherDisplay:10.37,2013-05-15 07:57:00,